QPF
0.00 0.00 0.00 0.01 0.01 0.01 0.00 0.00 0.00 0.00 0.00 0.00 0.00 0.01 0.01 0.01 0.01 0.02 0.02 0.03 0.05 0.07 0.05 0.04 0.04 0.04 0.04 0.06 0.07 0.07 0.07 0.06 0.05 0.08 0.10 0.09 0.06 0.05 0.07 0.07 0.07 0.08 0.07 0.07
0.00 0.01 0.01 0.01 0.01 0.01 0.01 0.00 0.00 0.00 0.00 0.00 0.01 0.01 0.01 0.01 0.03 0.04 0.02 0.03 0.04 0.07 0.07 0.06 0.05 0.04 0.03 0.05 0.07 0.06 0.06 0.05 0.06 0.07 0.08 0.07 0.07 0.08 0.07 0.07 0.07 0.08 0.07 0.06
0.01 0.01 0.01 0.01 0.01 0.01 0.01 0.01 0.01 0.01 0.00 0.01 0.01 0.02 0.01 0.01 0.02 0.02 0.02 0.03 0.05 0.06 0.07 0.07 0.06 0.06 0.05 0.04 0.05 0.07 0.06 0.05 0.05 0.05 0.06 0.06 0.08 0.07 0.05 0.04 0.04 0.04 0.04 0.03
0.01 0.02 0.02 0.01 0.01 0.01 0.01 0.01 0.01 0.01 0.00 0.01 0.01 0.01 0.02 0.01 0.01 0.02 0.02 0.02 0.04 0.05 0.05 0.07 0.07 0.08 0.09 0.07 0.06 0.05 0.05 0.04 0.04 0.04 0.05 0.04 0.04 0.04 0.04 0.03 0.03 0.02 0.03 0.02
0.01 0.01 0.01 0.02 0.01 0.02 0.02 0.02 0.02 0.01 0.01 0.01 0.01 0.01 0.03 0.02 0.02 0.02 0.01 0.01 0.01 0.03 0.04 0.06 0.10 0.12 0.14 0.14 0.08 0.04 0.03 0.04 0.04 0.04 0.04 0.05 0.06 0.05 0.04 0.04 0.04 0.03 0.02 0.02
0.01 0.01 0.01 0.01 0.02 0.02 0.02 0.03 0.02 0.03 0.02 0.02 0.03 0.03 0.04 0.02 0.02 0.02 0.02 0.02 0.02 0.03 0.05 0.04 0.06 0.09 0.09 0.11 0.12 0.06 0.03 0.04 0.05 0.04 0.03 0.04 0.04 0.05 0.03 0.03 0.03 0.03 0.03 0.03
0.01 0.01 0.01 0.02 0.02 0.02 0.02 0.02 0.03 0.04 0.04 0.05 0.07 0.06 0.04 0.03 0.04 0.03 0.03 0.03 0.04 0.04 0.04 0.04 0.04 0.04 0.04 0.05 0.07 0.07 0.06 0.04 0.04 0.03 0.03 0.02 0.02 0.02 0.02 0.02 0.02 0.03 0.04 0.04
0.01 0.01 0.01 0.01 0.02 0.03 0.03 0.02 0.03 0.03 0.04 0.06 0.10 0.09 0.04 0.03 0.04 0.05 0.07 0.06 0.05 0.05 0.04 0.04 0.03 0.03 0.03 0.03 0.04 0.06 0.05 0.02 0.02 0.04 0.03 0.03 0.02 0.02 0.02 0.02 0.02 0.03 0.05 0.06
0.02 0.02 0.02 0.02 0.03 0.03 0.03 0.03 0.03 0.04 0.03 0.05 0.09 0.07 0.03 0.03 0.04 0.06 0.13 0.09 0.06 0.07 0.06 0.03 0.03 0.03 0.03 0.04 0.04 0.04 0.02 0.01 0.02 0.04 0.06 0.07 0.06 0.05 0.04 0.04 0.04 0.03 0.04 0.04
0.03 0.03 0.02 0.02 0.03 0.03 0.03 0.03 0.02 0.02 0.04 0.06 0.08 0.05 0.03 0.03 0.04 0.04 0.10 0.10 0.08 0.08 0.06 0.04 0.05 0.07 0.08 0.08 0.08 0.06 0.04 0.05 0.04 0.04 0.04 0.07 0.10 0.10 0.08 0.06 0.05 0.05 0.05 0.06
0.04 0.03 0.03 0.03 0.03 0.03 0.02 0.03 0.02 0.03 0.05 0.07 0.07 0.05 0.04 0.03 0.04 0.03 0.04 0.06 0.07 0.06 0.06 0.06 0.06 0.07 0.09 0.09 0.08 0.06 0.03 0.03 0.04 0.04 0.04 0.06 0.07 0.10 0.11 0.10 0.09 0.07 0.07 0.08
0.05 0.04 0.04 0.03 0.03 0.03 0.03 0.04 0.04 0.04 0.04 0.06 0.06 0.04 0.03 0.03 0.04 0.03 0.03 0.04 0.05 0.05 0.05 0.05 0.05 0.06 0.07 0.09 0.09 0.07 0.05 0.04 0.04 0.04 0.04 0.05 0.05 0.07 0.10 0.09 0.10 0.09 0.08 0.09
0.05 0.05 0.05 0.03 0.03 0.03 0.03 0.04 0.04 0.04 0.04 0.05 0.05 0.04 0.03 0.03 0.03 0.04 0.04 0.05 0.05 0.05 0.04 0.04 0.04 0.05 0.06 0.06 0.08 0.09 0.10 0.09 0.08 0.08 0.09 0.10 0.10 0.10 0.11 0.11 0.12 0.10 0.10 0.09
0.04 0.05 0.06 0.05 0.04 0.03 0.03 0.05 0.06 0.08 0.07 0.06 0.05 0.04 0.03 0.03 0.02 0.02 0.04 0.07 0.07 0.06 0.05 0.04 0.04 0.03 0.04 0.04 0.04 0.07 0.10 0.10 0.10 0.10 0.10 0.12 0.13 0.12 0.11 0.11 0.10 0.09 0.08 0.07
0.03 0.04 0.04 0.05 0.06 0.05 0.05 0.05 0.09 0.13 0.09 0.07 0.06 0.05 0.04 0.03 0.02 0.02 0.03 0.04 0.06 0.07 0.07 0.06 0.04 0.03 0.03 0.04 0.04 0.03 0.05 0.08 0.07 0.07 0.08 0.09 0.12 0.15 0.15 0.12 0.08 0.06 0.05 0.04
0.04 0.04 0.03 0.03 0.05 0.06 0.06 0.07 0.10 0.09 0.07 0.05 0.04 0.04 0.04 0.06 0.05 0.04 0.04 0.06 0.06 0.07 0.07 0.06 0.05 0.04 0.04 0.04 0.04 0.03 0.03 0.05 0.07 0.07 0.07 0.08 0.10 0.10 0.13 0.14 0.11 0.07 0.05 0.05
0.04 0.04 0.03 0.02 0.03 0.07 0.08 0.06 0.05 0.05 0.06 0.04 0.03 0.02 0.05 0.07 0.06 0.06 0.05 0.07 0.09 0.09 0.10 0.09 0.08 0.06 0.04 0.05 0.04 0.04 0.03 0.04 0.05 0.05 0.06 0.07 0.08 0.09 0.10 0.13 0.14 0.12 0.11 0.11
0.05 0.04 0.03 0.03 0.05 0.07 0.08 0.08 0.06 0.05 0.05 0.04 0.03 0.03 0.07 0.08 0.08 0.07 0.06 0.06 0.08 0.10 0.12 0.12 0.11 0.09 0.07 0.07 0.05 0.03 0.03 0.02 0.03 0.03 0.03 0.04 0.05 0.06 0.09 0.11 0.13 0.11 0.10 0.09
0.06 0.05 0.05 0.05 0.05 0.07 0.11 0.13 0.09 0.07 0.05 0.04 0.03 0.03 0.07 0.12 0.12 0.08 0.06 0.05 0.06 0.08 0.11 0.11 0.12 0.10 0.11 0.10 0.07 0.06 0.04 0.04 0.04 0.04 0.04 0.05 0.05 0.05 0.07 0.08 0.08 0.07 0.07 0.07
0.06 0.05 0.05 0.05 0.06 0.08 0.10 0.12 0.11 0.08 0.05 0.04 0.04 0.05 0.07 0.11 0.14 0.11 0.08 0.08 0.08 0.09 0.09 0.10 0.10 0.09 0.10 0.09 0.07 0.06 0.05 0.04 0.05 0.05 0.05 0.05 0.04 0.05 0.05 0.06 0.06 0.06 0.07 0.07
0.06 0.06 0.05 0.06 0.07 0.07 0.08 0.09 0.08 0.06 0.06 0.06 0.05 0.05 0.07 0.09 0.13 0.13 0.11 0.10 0.11 0.10 0.08 0.07 0.07 0.07 0.07 0.07 0.06 0.04 0.03 0.03 0.03 0.03 0.04 0.04 0.04 0.04 0.04 0.04 0.05 0.06 0.07 0.08
0.05 0.06 0.05 0.05 0.05 0.05 0.05 0.06 0.06 0.05 0.05 0.05 0.04 0.05 0.05 0.06 0.09 0.10 0.10 0.10 0.09 0.10 0.11 0.09 0.09 0.10 0.10 0.10 0.07 0.04 0.03 0.02 0.02 0.02 0.03 0.03 0.04 0.05 0.06 0.05 0.04 0.05 0.06 0.08
0.05 0.05 0.04 0.03 0.02 0.03 0.04 0.04 0.03 0.02 0.02 0.02 0.02 0.03 0.02 0.03 0.04 0.05 0.05 0.06 0.07 0.09 0.15 0.15 0.12 0.12 0.12 0.11 0.10 0.07 0.04 0.02 0.02 0.02 0.03 0.03 0.03 0.05 0.07 0.07 0.05 0.04 0.05 0.06
0.05 0.05 0.04 0.04 0.03 0.02 0.02 0.03 0.02 0.01 0.01 0.01 0.02 0.02 0.02 0.03 0.04 0.04 0.04 0.07 0.09 0.09 0.12 0.15 0.13 0.14 0.14 0.12 0.11 0.10 0.07 0.05 0.03 0.02 0.02 0.02 0.02 0.02 0.04 0.05 0.06 0.05 0.06 0.05
0.07 0.06 0.04 0.03 0.03 0.03 0.03 0.02 0.02 0.02 0.01 0.01 0.02 0.02 0.02 0.03 0.04 0.05 0.05 0.05 0.06 0.05 0.04 0.05 0.06 0.08 0.09 0.10 0.10 0.09 0.08 0.07 0.05 0.04 0.03 0.02 0.02 0.03 0.03 0.04 0.05 0.05 0.04 0.05
0.07 0.06 0.05 0.04 0.02 0.03 0.03 0.03 0.03 0.02 0.02 0.02 0.02 0.02 0.02 0.03 0.05 0.05 0.03 0.03 0.03 0.03 0.03 0.03 0.03 0.03 0.04 0.04 0.05 0.05 0.04 0.05 0.04 0.04 0.03 0.02 0.02 0.02 0.02 0.03 0.03 0.04 0.04 0.04
0.07 0.08 0.08 0.06 0.03 0.02 0.03 0.03 0.03 0.02 0.02 0.02 0.02 0.02 0.02 0.03 0.05 0.06 0.06 0.06 0.05 0.05 0.05 0.05 0.05 0.04 0.03 0.03 0.03 0.02 0.01 0.01 0.01 0.02 0.02 0.01 0.01 0.01 0.01 0.01 0.02 0.02 0.03 0.03
MSLP
1006.01 1006.42 1006.91 1007.43 1007.91 1008.27 1008.44 1008.40 1008.13 1007.66 1007.05 1006.37 1005.73 1005.18 1004.81 1004.64 1004.67 1004.88 1005.22 1005.63 1006.07 1006.49 1006.86 1007.18 1007.49 1007.79 1008.12 1008.50 1008.93 1009.41 1009.91 1010.41 1010.89 1011.33 1011.71 1012.04 1012.33 1012.61 1012.90 1013.22 1013.58 1013.98 1014.42 1014.87
1006.29 1006.64 1007.01 1007.37 1007.65 1007.81 1007.81 1007.65 1007.33 1006.89 1006.38 1005.88 1005.43 1005.11 1004.93 1004.90 1005.02 1005.25 1005.56 1005.88 1006.20 1006.48 1006.73 1006.96 1007.19 1007.44 1007.75 1008.11 1008.54 1009.01 1009.50 1009.98 1010.43 1010.83 1011.17 1011.47 1011.73 1011.99 1012.26 1012.55 1012.89 1013.26 1013.66 1014.07
1006.65 1006.96 1007.26 1007.49 1007.62 1007.61 1007.47 1007.20 1006.84 1006.42 1006.01 1005.65 1005.38 1005.24 1005.22 1005.33 1005.52 1005.76 1006.02 1006.26 1006.46 1006.61 1006.74 1006.87 1007.01 1007.20 1007.45 1007.77 1008.16 1008.58 1009.03 1009.46 1009.85 1010.20 1010.50 1010.75 1010.99 1011.21 1011.46 1011.74 1012.05 1012.39 1012.75 1013.13
1007.04 1007.35 1007.60 1007.75 1007.76 1007.64 1007.39 1007.05 1006.66 1006.27 1005.93 1005.69 1005.56 1005.57 1005.68 1005.89 1006.13 1006.38 1006.60 1006.77 1006.87 1006.92 1006.94 1006.95 1007.00 1007.11 1007.29 1007.54 1007.85 1008.20 1008.56 1008.91 1009.22 1009.50 1009.73 1009.94 1010.13 1010.33 1010.56 1010.82 1011.11 1011.43 1011.76 1012.10
1007.41 1007.74 1007.97 1008.07 1008.02 1007.83 1007.52 1007.13 1006.73 1006.37 1006.10 1005.95 1005.94 1006.06 1006.28 1006.55 1006.84 1007.10 1007.29 1007.40 1007.43 1007.40 1007.32 1007.25 1007.21 1007.23 1007.31 1007.47 1007.68 1007.93 1008.18 1008.41 1008.63 1008.81 1008.96 1009.10 1009.25 1009.42 1009.62 1009.86 1010.14 1010.44 1010.75 1011.05
1007.73 1008.07 1008.30 1008.39 1008.32 1008.10 1007.77 1007.39 1007.00 1006.69 1006.48 1006.40 1006.48 1006.68 1006.98 1007.31 1007.63 1007.90 1008.08 1008.15 1008.13 1008.04 1007.90 1007.76 1007.64 1007.57 1007.56 1007.61 1007.70 1007.82 1007.94 1008.04 1008.13 1008.19 1008.25 1008.31 1008.39 1008.52 1008.69 1008.91 1009.17 1009.46 1009.75 1010.04
1007.96 1008.33 1008.58 1008.69 1008.63 1008.43 1008.12 1007.77 1007.43 1007.16 1007.02 1007.01 1007.16 1007.43 1007.77 1008.14 1008.49 1008.76 1008.94 1009.00 1008.95 1008.82 1008.64 1008.45 1008.27 1008.12 1008.02 1007.96 1007.92 1007.90 1007.87 1007.83 1007.77 1007.70 1007.63 1007.59 1007.60 1007.66 1007.79 1007.98 1008.22 1008.49 1008.77 1009.05
1008.14 1008.52 1008.80 1008.95 1008.93 1008.78 1008.53 1008.25 1007.97 1007.78 1007.70 1007.77 1007.97 1008.28 1008.66 1009.05 1009.41 1009.69 1009.86 1009.92 1009.86 1009.71 1009.51 1009.28 1009.05 1008.84 1008.65 1008.48 1008.32 1008.15 1007.97 1007.77 1007.55 1007.32 1007.12 1006.96 1006.85 1006.83 1006.89 1007.03 1007.23 1007.48 1007.75 1008.02
1008.29 1008.70 1009.02 1009.21 1009.26 1009.19 1009.03 1008.83 1008.65 1008.54 1008.53 1008.65 1008.90 1009.24 1009.64 1010.04 1010.39 1010.67 1010.84 1010.89 1010.82 1010.67 1010.45 1010.20 1009.93 1009.66 1009.39 1009.12 1008.83 1008.52 1008.19 1007.82 1007.43 1007.04 1006.68 1006.37 1006.13 1005.99 1005.95 1006.01 1006.16 1006.37 1006.61 1006.88
1008.49 1008.91 1009.27 1009.52 1009.65 1009.67 1009.61 1009.51 1009.44 1009.42 1009.49 1009.67 1009.95 1010.31 1010.70 1011.09 1011.43 1011.69 1011.84 1011.88 1011.81 1011.65 1011.42 1011.14 1010.84 1010.51 1010.17 1009.81 1009.40 1008.96 1008.47 1007.94 1007.38 1006.82 1006.28 1005.80 1005.40 1005.12 1004.95 1004.90 1004.96 1005.10 1005.32 1005.57
1008.78 1009.23 1009.62 1009.93 1010.14 1010.25 1010.29 1010.31 1010.33 1010.41 1010.55 1010.78 1011.09 1011.45 1011.83 1012.20 1012.51 1012.73 1012.86 1012.87 1012.78 1012.61 1012.36 1012.06 1011.72 1011.35 1010.94 1010.49 1009.98 1009.41 1008.78 1008.10 1007.37 1006.64 1005.92 1005.26 1004.69 1004.23 1003.90 1003.71 1003.66 1003.71 1003.87 1004.09
1009.22 1009.68 1010.11 1010.46 1010.74 1010.94 1011.08 1011.20 1011.33 1011.48 1011.69 1011.96 1012.28 1012.64 1013.00 1013.33 1013.60 1013.78 1013.87 1013.85 1013.73 1013.53 1013.25 1012.93 1012.55 1012.13 1011.66 1011.13 1010.54 1009.86 1009.11 1008.29 1007.42 1006.52 1005.64 1004.80 1004.05 1003.41 1002.92 1002.57 1002.38 1002.32 1002.39 1002.55
1009.83 1010.29 1010.73 1011.12 1011.45 1011.73 1011.95 1012.16 1012.37 1012.60 1012.86 1013.16 1013.49 1013.84 1014.16 1014.45 1014.67 1014.81 1014.85 1014.79 1014.63 1014.40 1014.10 1013.74 1013.33 1012.86 1012.34 1011.76 1011.09 1010.33 1009.49 1008.56 1007.57 1006.55 1005.52 1004.53 1003.62 1002.82 1002.16 1001.66 1001.32 1001.13 1001.10 1001.18
1010.58 1011.05 1011.49 1011.90 1012.26 1012.59 1012.88 1013.16 1013.43 1013.72 1014.02 1014.34 1014.68 1015.01 1015.30 1015.55 1015.72 1015.81 1015.80 1015.70 1015.51 1015.24 1014.91 1014.52 1014.07 1013.57 1013.01 1012.38 1011.66 1010.86 1009.96 1008.97 1007.91 1006.80 1005.68 1004.58 1003.55 1002.62 1001.83 1001.19 1000.71 1000.40 1000.25 1000.24
1011.47 1011.92 1012.35 1012.76 1013.15 1013.51 1013.84 1014.17 1014.49 1014.82 1015.15 1015.49 1015.82 1016.13 1016.40 1016.60 1016.73 1016.78 1016.73 1016.59 1016.37 1016.07 1015.70 1015.28 1014.81 1014.29 1013.70 1013.05 1012.31 1011.48 1010.57 1009.56 1008.48 1007.35 1006.19 1005.05 1003.96 1002.95 1002.07 1001.33 1000.75 1000.33 1000.08 999.97
1012.46 1012.88 1013.29 1013.70 1014.09 1014.47 1014.83 1015.19 1015.55 1015.90 1016.25 1016.60 1016.92 1017.21 1017.45 1017.63 1017.72 1017.73 1017.65 1017.48 1017.22 1016.90 1016.51 1016.07 1015.58 1015.04 1014.44 1013.78 1013.05 1012.24 1011.34 1010.37 1009.33 1008.23 1007.10 1005.98 1004.90 1003.89 1002.98 1002.19 1001.55 1001.07 1000.73 1000.54
1013.49 1013.89 1014.29 1014.68 1015.08 1015.46 1015.85 1016.23 1016.61 1016.98 1017.34 1017.69 1018.00 1018.27 1018.49 1018.63 1018.70 1018.67 1018.57 1018.37 1018.09 1017.75 1017.35 1016.89 1016.39 1015.84 1015.24 1014.60 1013.89 1013.12 1012.28 1011.38 1010.42 1009.41 1008.38 1007.34 1006.33 1005.38 1004.51 1003.74 1003.10 1002.58 1002.20 1001.94
1014.55 1014.93 1015.31 1015.71 1016.10 1016.50 1016.90 1017.30 1017.69 1018.07 1018.43 1018.77 1019.07 1019.32 1019.51 1019.63 1019.66 1019.62 1019.49 1019.27 1018.98 1018.62 1018.21 1017.74 1017.23 1016.68 1016.10 1015.47 1014.81 1014.10 1013.34 1012.53 1011.69 1010.81 1009.91 1009.01 1008.13 1007.29 1006.52 1005.82 1005.22 1004.72 1004.33 1004.04
1015.59 1015.97 1016.36 1016.76 1017.17 1017.58 1018.00 1018.41 1018.81 1019.19 1019.55 1019.87 1020.14 1020.37 1020.53 1020.62 1020.63 1020.56 1020.41 1020.18 1019.88 1019.51 1019.08 1018.61 1018.10 1017.55 1016.98 1016.38 1015.76 1015.11 1014.44 1013.75 1013.03 1012.30 1011.55 1010.82 1010.10 1009.41 1008.76 1008.18 1007.66 1007.21 1006.85 1006.56
1016.59 1016.99 1017.40 1017.82 1018.26 1018.70 1019.13 1019.55 1019.96 1020.33 1020.67 1020.97 1021.21 1021.40 1021.53 1021.59 1021.57 1021.48 1021.31 1021.07 1020.76 1020.38 1019.95 1019.48 1018.97 1018.43 1017.87 1017.29 1016.71 1016.12 1015.53 1014.93 1014.34 1013.75 1013.16 1012.59 1012.03 1011.50 1010.99 1010.53 1010.11 1009.74 1009.42 1009.15
1017.54 1017.97 1018.43 1018.89 1019.36 1019.82 1020.28 1020.71 1021.10 1021.47 1021.78 1022.05 1022.25 1022.40 1022.49 1022.51 1022.46 1022.35 1022.17 1021.92 1021.60 1021.23 1020.80 1020.33 1019.82 1019.29 1018.74 1018.19 1017.64 1017.10 1016.57 1016.05 1015.56 1015.08 1014.62 1014.19 1013.77 1013.38 1013.01 1012.66 1012.34 1012.04 1011.77 1011.52
1018.44 1018.92 1019.42 1019.93 1020.44 1020.93 1021.40 1021.83 1022.21 1022.55 1022.83 1023.06 1023.22 1023.32 1023.37 1023.35 1023.28 1023.15 1022.95 1022.70 1022.39 1022.02 1021.61 1021.15 1020.66 1020.14 1019.61 1019.08 1018.55 1018.05 1017.56 1017.10 1016.68 1016.28 1015.92 1015.58 1015.27 1014.98 1014.71 1014.45 1014.20 1013.95 1013.72 1013.49
1019.28 1019.83 1020.38 1020.93 1021.47 1021.98 1022.45 1022.88 1023.24 1023.54 1023.79 1023.96 1024.08 1024.13 1024.14 1024.09 1023.99 1023.85 1023.65 1023.41 1023.11 1022.77 1022.37 1021.94 1021.48 1020.99 1020.48 1019.97 1019.47 1018.99 1018.53 1018.11 1017.73 1017.38 1017.07 1016.79 1016.54 1016.31 1016.10 1015.89 1015.68 1015.46 1015.24 1015.01
1020.09 1020.70 1021.29 1021.88 1022.44 1022.95 1023.42 1023.82 1024.15 1024.41 1024.61 1024.74 1024.81 1024.82 1024.79 1024.71 1024.60 1024.45 1024.26 1024.03 1023.76 1023.45 1023.10 1022.71 1022.29 1021.84 1021.37 1020.89 1020.42 1019.97 1019.53 1019.13 1018.77 1018.44 1018.15 1017.90 1017.67 1017.46 1017.26 1017.06 1016.85 1016.64 1016.41 1016.17
1020.89 1021.54 1022.17 1022.76 1023.32 1023.83 1024.27 1024.64 1024.93 1025.15 1025.30 1025.38 1025.41 1025.38 1025.32 1025.22 1025.10 1024.96 1024.78 1024.58 1024.35 1024.09 1023.79 1023.45 1023.09 1022.69 1022.27 1021.84 1021.41 1020.98 1020.57 1020.19 1019.84 1019.52 1019.23 1018.97 1018.74 1018.52 1018.30 1018.09 1017.86 1017.63 1017.37 1017.10
1021.69 1022.35 1022.99 1023.58 1024.12 1024.60 1025.01 1025.33 1025.59 1025.76 1025.86 1025.91 1025.90 1025.85 1025.77 1025.66 1025.54 1025.40 1025.25 1025.08 1024.89 1024.67 1024.43 1024.16 1023.85 1023.52 1023.16 1022.79 1022.41 1022.02 1021.65 1021.29 1020.95 1020.63 1020.34 1020.07 1019.81 1019.57 1019.33 1019.08 1018.82 1018.55 1018.26 1017.95
1022.48 1023.14 1023.76 1024.33 1024.84 1025.27 1025.64 1025.92 1026.13 1026.27 1026.34 1026.35 1026.32 1026.25 1026.16 1026.05 1025.94 1025.81 1025.68 1025.53 1025.38 1025.21 1025.01 1024.80 1024.55 1024.28 1023.99 1023.68 1023.35 1023.02 1022.69 1022.36 1022.04 1021.74 1021.45 1021.17 1020.89 1020.63 1020.35 1020.07 1019.78 1019.47 1019.14 1018.80
Thickness
5710 5718 5720 5722 5721 5718 5716 5711 5706 5714 5719 5730 5736 5739 5743 5745 5744 5744 5743 5744 5745 5744 5743 5741 5740 5739 5739 5737 5734 5733 5730 5727 5726 5725 5723 5721 5719 5717 5715 5714 5714 5712 5711 5709
5703 5713 5716 5714 5718 5718 5718 5717 5717 5719 5721 5734 5737 5739 5739 5740 5740 5739 5740 5742 5743 5742 5741 5740 5739 5738 5736 5734 5733 5731 5728 5726 5725 5723 5721 5719 5718 5716 5714 5713 5712 5710 5709 5708
5685 5701 5706 5696 5709 5714 5717 5721 5720 5715 5723 5730 5731 5732 5733 5736 5738 5737 5739 5740 5740 5740 5739 5739 5738 5737 5735 5733 5731 5729 5727 5725 5724 5722 5719 5718 5717 5714 5712 5711 5710 5708 5708 5707
5676 5685 5675 5695 5716 5719 5716 5716 5720 5722 5725 5726 5728 5730 5732 5734 5734 5736 5738 5738 5739 5739 5737 5737 5736 5736 5734 5731 5729 5727 5724 5723 5722 5720 5718 5716 5715 5713 5712 5710 5709 5707 5706 5705
5665 5668 5677 5695 5707 5710 5707 5706 5714 5716 5720 5722 5725 5727 5727 5731 5733 5735 5737 5738 5739 5739 5737 5735 5734 5733 5732 5729 5727 5724 5723 5721 5721 5719 5717 5715 5713 5712 5711 5709 5708 5706 5705 5704
5662 5664 5665 5687 5704 5712 5707 5695 5710 5712 5714 5716 5719 5711 5716 5725 5729 5732 5734 5736 5736 5736 5735 5733 5732 5732 5730 5727 5724 5723 5722 5722 5720 5719 5716 5715 5713 5712 5711 5709 5707 5706 5704 5703
5658 5659 5669 5687 5698 5705 5687 5692 5704 5707 5710 5711 5710 5711 5714 5720 5723 5726 5728 5731 5732 5731 5730 5729 5730 5729 5727 5725 5723 5723 5722 5720 5718 5717 5716 5714 5712 5711 5709 5707 5705 5703 5702 5701
5651 5653 5661 5683 5690 5688 5689 5696 5699 5701 5704 5705 5705 5708 5711 5713 5716 5719 5721 5723 5724 5725 5724 5725 5726 5725 5723 5721 5722 5721 5719 5717 5715 5714 5713 5712 5709 5708 5706 5704 5701 5700 5698 5697
5653 5656 5666 5674 5679 5684 5688 5690 5692 5695 5699 5699 5699 5701 5704 5706 5709 5711 5713 5716 5718 5718 5717 5718 5719 5720 5718 5718 5718 5717 5716 5714 5712 5711 5709 5709 5707 5705 5703 5701 5699 5697 5696 5694
5649 5654 5661 5667 5673 5678 5682 5685 5687 5691 5692 5693 5693 5694 5696 5697 5699 5702 5706 5708 5710 5710 5711 5711 5713 5714 5714 5714 5714 5713 5711 5709 5708 5706 5705 5704 5703 5702 5700 5698 5696 5695 5693 5692
5643 5649 5655 5659 5664 5669 5674 5678 5680 5682 5684 5685 5685 5686 5688 5689 5691 5694 5697 5700 5702 5703 5704 5705 5706 5707 5708 5709 5710 5708 5707 5705 5704 5703 5701 5699 5698 5696 5696 5695 5695 5693 5691 5690
5638 5644 5647 5649 5655 5661 5664 5668 5671 5673 5674 5676 5677 5677 5679 5681 5683 5687 5690 5692 5694 5695 5697 5699 5700 5700 5702 5703 5704 5703 5701 5700 5699 5698 5696 5694 5691 5688 5686 5687 5686 5686 5686 5685
5636 5640 5642 5645 5648 5651 5655 5658 5661 5664 5666 5667 5669 5670 5672 5673 5675 5678 5681 5684 5686 5688 5690 5691 5692 5693 5693 5695 5697 5697 5696 5695 5694 5692 5690 5688 5685 5682 5679 5677 5676 5675 5675 5674
5631 5634 5634 5636 5639 5643 5646 5649 5652 5654 5657 5660 5662 5663 5664 5665 5667 5670 5672 5675 5678 5680 5681 5682 5683 5684 5686 5688 5690 5690 5689 5688 5687 5685 5684 5681 5679 5676 5673 5671 5668 5666 5664 5663
5624 5628 5628 5630 5632 5634 5637 5641 5643 5644 5647 5650 5652 5654 5655 5656 5658 5660 5664 5668 5671 5672 5672 5673 5674 5675 5678 5680 5681 5681 5681 5679 5678 5676 5675 5672 5670 5667 5664 5662 5659 5656 5654 5653
5616 5620 5622 5624 5625 5626 5629 5632 5634 5635 5637 5641 5643 5645 5646 5647 5649 5651 5654 5658 5660 5660 5661 5662 5664 5666 5669 5671 5671 5671 5670 5669 5668 5666 5664 5662 5659 5657 5654 5652 5649 5647 5644 5642
5609 5611 5613 5616 5618 5619 5621 5625 5628 5629 5630 5632 5633 5635 5637 5639 5640 5641 5644 5647 5649 5649 5650 5652 5654 5657 5659 5661 5661 5660 5658 5657 5656 5654 5652 5650 5648 5646 5643 5641 5638 5635 5633 5631
5605 5607 5609 5611 5613 5614 5615 5617 5620 5621 5621 5623 5625 5627 5628 5628 5628 5629 5632 5635 5638 5638 5639 5641 5644 5646 5647 5648 5648 5647 5646 5644 5643 5641 5639 5637 5635 5633 5630 5628 5626 5623 5620 5618
5599 5601 5603 5605 5606 5608 5609 5609 5611 5612 5613 5615 5616 5616 5617 5617 5617 5618 5621 5624 5625 5625 5624 5628 5631 5634 5635 5635 5635 5634 5633 5631 5629 5626 5625 5622 5621 5619 5617 5614 5612 5610 5608 5605
5594 5595 5597 5598 5600 5601 5601 5602 5604 5604 5605 5606 5607 5607 5607 5606 5607 5608 5610 5610 5609 5610 5613 5616 5618 5620 5620 5620 5621 5620 5618 5616 5614 5611 5609 5608 5606 5604 5602 5599 5597 5594 5592 5590
5588 5589 5590 5591 5592 5593 5594 5595 5596 5596 5596 5598 5598 5597 5596 5596 5597 5598 5599 5598 5596 5599 5603 5604 5605 5605 5606 5606 5607 5605 5603 5601 5599 5596 5594 5592 5589 5587 5584 5582 5579 5577 5575 5572
5582 5583 5584 5584 5584 5584 5585 5586 5587 5587 5587 5587 5588 5588 5588 5586 5586 5586 5586 5585 5585 5588 5591 5591 5591 5592 5592 5592 5591 5590 5588 5586 5583 5581 5578 5575 5572 5570 5567 5565 5562 5560 5557 5555
5577 5577 5577 5577 5576 5576 5576 5576 5576 5577 5577 5577 5576 5576 5576 5575 5576 5577 5575 5574 5575 5577 5578 5577 5577 5578 5579 5578 5576 5574 5572 5570 5568 5565 5562 5559 5556 5553 5550 5547 5544 5542 5540 5538
5570 5570 5569 5569 5570 5569 5567 5565 5566 5567 5567 5566 5565 5565 5566 5565 5564 5563 5564 5563 5564 5565 5564 5562 5564 5565 5565 5563 5561 5559 5556 5554 5551 5548 5546 5543 5540 5536 5533 5530 5527 5525 5523 5521
5562 5562 5562 5562 5561 5559 5557 5557 5557 5557 5557 5555 5555 5555 5555 5555 5554 5552 5553 5553 5553 5553 5552 5551 5551 5551 5550 5548 5546 5543 5541 5538 5536 5533 5530 5527 5524 5520 5517 5514 5511 5509 5506 5504
5554 5553 5553 5553 5552 5551 5550 5551 5549 5548 5548 5546 5545 5544 5544 5544 5543 5543 5542 5541 5541 5540 5539 5538 5537 5537 5535 5533 5531 5528 5526 5523 5521 5519 5515 5512 5509 5506 5502 5499 5496 5493 5490 5488
5545 5545 5544 5543 5542 5542 5543 5542 5541 5539 5538 5537 5535 5534 5534 5533 5533 5532 5531 5530 5529 5527 5526 5524 5523 5522 5521 5519 5516 5514 5511 5509 5506 5503 5500 5497 5494 5491 5488 5484 5481 5478 5475 5472